Home   Weather   USA   Austin   Past weeks
Flag for USA

Past Weather in Austin, Texas, USA — March 2018

Currently: 75 °F. Mild. (Weather station: Camp Mabry / Austin City, USA). See more current weather

March 2018 Weather in Austin — Graph

°F

High & Low Weather Summary for March 2018

 TemperatureHumidityPressure
High89 °F (Mar 10, 2:51 pm)100% (Mar 29, 7:51 am)30.38 "Hg (Mar 29, 7:51 am)
Low42 °F (Mar 14, 5:51 am)9% (Mar 19, 2:51 pm)29.62 "Hg (Mar 10, 4:51 pm)
Average66 °F64%30.00 "Hg
* Reported Mar 1 12:39 am — Mar 31 11:51 pm, Austin. Weather by CustomWeather, © 2023

Note: Actual official high and low records may vary slightly from our data, if they occured in-between our weather recording intervals... More about our weather records

Austin Weather History for March 1, 2018

Scroll right to see more
 ConditionsComfort  
Time TempWeatherWind HumidityBarometerVisibility
12:39 am
Thu, Mar 1
70 °FPassing clouds.8 mph87%29.77 "Hg10 mi
12:51 am70 °FPassing clouds.6 mph87%29.75 "Hg10 mi
1:20 am71 °FPassing clouds.3 mph84%29.84 "Hg10 mi
1:51 am63 °FLight rain. Mostly cloudy.18 mph75%29.86 "Hg10 mi
2:51 am62 °FPassing clouds.9 mph73%29.86 "Hg10 mi
3:51 am63 °FOvercast.3 mph70%29.85 "Hg10 mi
4:51 am62 °FOvercast.5 mph75%29.88 "Hg10 mi
5:51 am63 °FOvercast.No wind73%29.92 "Hg10 mi
6:51 am63 °FOvercast.3 mph73%29.95 "Hg10 mi
7:51 am63 °FSunny.8 mph60%29.98 "Hg10 mi
8:51 am64 °FSunny.7 mph50%30.01 "Hg10 mi
9:51 am66 °FSunny.12 mph45%30.04 "Hg10 mi
10:51 am67 °FSunny.8 mph51%30.06 "Hg10 mi
11:51 am69 °FSunny.10 mph49%30.09 "Hg10 mi
12:51 pm67 °FSunny.10 mph51%30.11 "Hg10 mi
1:51 pm66 °FSunny.12 mph50%30.10 "Hg10 mi
2:51 pm67 °FSunny.7 mph49%30.12 "Hg10 mi
3:51 pm65 °FSunny.9 mph52%30.12 "Hg10 mi
4:51 pm62 °FSunny.13 mph58%30.14 "Hg10 mi
5:51 pm60 °FSunny.8 mph62%30.16 "Hg10 mi
6:51 pm59 °FClear.7 mph67%30.18 "Hg10 mi
7:51 pm59 °FClear.6 mph67%30.20 "Hg10 mi
8:51 pm58 °FClear.6 mph72%30.21 "Hg10 mi
9:51 pm57 °FClear.6 mph74%30.23 "Hg10 mi
11:51 pm55 °FClear.5 mph80%30.24 "Hg8 mi
Weather by CustomWeather, © 2023

See weather overview